* Astronomy

Members Login
Post Info TOPIC: Asteroid 2004 VV130


L

Posts: 131433
Date:
Asteroid 2004 VV130
Permalink  
 


Orbital elements:
2004 VV130
Epoch 2011 Feb. 8.0 TT = JDT 2455600.5                  MPC
M 348.68015              (2000.0)            P               Q
n   0.00394628     Peri.   28.34008     +0.29219982     -0.91023839
a  39.6592128      Node    46.42748     +0.78306124     +0.05158955
e   0.1919572      Incl.   23.88935     +0.54903039     +0.41085835
P 250              H    7.3           G   0.15           U   2

MPEC 2011 - G80



__________________
Page 1 of 1  sorted by
Quick Reply

Please log in to post quick replies.



Create your own FREE Forum
Report Abuse
Powered by ActiveBoard